| time (UTC) | temp C | wind direction | speed KPH | gust KPH | rain 1hr cm | rain 24hr cm | rain mn cm | humidity % | barometer mb |
| 20260508023826 | 17 | 317 | 4.8 | 14.5 | 0.00 | 0.00 | 0.00 | 14 | 1014.9 |
| 20260508023324 | 17 | 311 | 8.0 | 14.5 | 0.00 | 0.00 | 0.00 | 15 | 1014.8 |
| 20260508022815 | 17 | 294 | 4.8 | 20.9 | 0.00 | 0.00 | 0.00 | 15 | 1014.6 |
| 20260508022314 | 17 | 301 | 8.0 | 20.9 | 0.00 | 0.00 | 0.00 | 15 | 1014.6 |
| 20260508021848 | 16 | 280 | 8.0 | 14.5 | 0.00 | 0.00 | 0.00 | 15 | 1014.6 |
| 20260508021325 | 17 | 298 | 4.8 | 11.3 | 0.00 | 0.00 | 0.00 | 15 | 1014.4 |
| 20260508020817 | 17 | 302 | 3.2 | 4.8 | 0.00 | 0.00 | 0.00 | 14 | 1014.3 |
| 20260508020319 | 17 | 309 | 1.6 | 4.8 | 0.00 | 0.00 | 0.00 | 14 | 1014.2 |
| 20260508015810 | 18 | 319 | 1.6 | 4.8 | 0.00 | 0.00 | 0.00 | 13 | 1014.1 |
| 20260508015309 | 18 | 317 | 1.6 | 4.8 | 0.00 | 0.00 | 0.00 | 13 | 1014.0 |
| 20260508014822 | 19 | 298 | 1.6 | 6.4 | 0.00 | 0.00 | 0.00 | 13 | 1014.0 |
| 20260508014319 | 20 | 279 | 3.2 | 6.4 | 0.00 | 0.00 | 0.00 | 12 | 1013.9 |
| 20260508013810 | 20 | 42 | 3.2 | 6.4 | 0.00 | 0.00 | 0.00 | 12 | 1013.8 |
| 20260508013329 | 20 | 313 | 1.6 | 4.8 | 0.00 | 0.00 | 0.00 | 12 | 1013.7 |
| 20260508012821 | 21 | 360 | 3.2 | 9.7 | 0.00 | 0.00 | 0.00 | 11 | 1013.7 |
| 20260508012318 | 21 | 22 | 4.8 | 9.7 | 0.00 | 0.00 | 0.00 | 10 | 1013.6 |
| 20260508011810 | 21 | 75 | 1.6 | 11.3 | 0.00 | 0.00 | 0.00 | 10 | 1013.5 |
| 20260508011329 | 21 | 360 | 1.6 | 8.0 | 0.00 | 0.00 | 0.00 | 10 | 1013.5 |
| 20260508010820 | 21 | 307 | 1.6 | 8.0 | 0.00 | 0.00 | 0.00 | 9 | 1013.5 |
| 20260508010340 | 21 | 360 | 3.2 | 8.0 | 0.00 | 0.00 | 0.00 | 9 | 1013.5 |
| 20260508005832 | 22 | 44 | 3.2 | 9.7 | 0.00 | 0.00 | 0.00 | 9 | 1013.7 |
| 20260508005324 | 22 | 96 | 3.2 | 17.7 | 0.00 | 0.00 | 0.00 | 10 | 1013.6 |
| 20260508004837 | 22 | 97 | 6.4 | 17.7 | 0.00 | 0.00 | 0.00 | 10 | 1013.7 |
| 20260508004335 | 22 | 80 | 3.2 | 14.5 | 0.00 | 0.00 | 0.00 | 10 | 1013.6 |
| 20260508003827 | 22 | 86 | 3.2 | 14.5 | 0.00 | 0.00 | 0.00 | 10 | 1013.8 |
| 20260508003325 | 22 | 35 | 9.7 | 14.5 | 0.00 | 0.00 | 0.00 | 9 | 1013.8 |
| 20260508002817 | 22 | 119 | 3.2 | 11.3 | 0.00 | 0.00 | 0.00 | 10 | 1013.9 |
| 20260508002314 | 23 | 86 | 6.4 | 11.3 | 0.00 | 0.00 | 0.00 | 10 | 1014.0 |
| 20260508001848 | 23 | 184 | 1.6 | 11.3 | 0.00 | 0.00 | 0.00 | 10 | 1014.0 |
| 20260508001325 | 23 | 142 | 1.6 | 11.3 | 0.00 | 0.00 | 0.00 | 9 | 1014.1 |
| 20260508000816 | 23 | 188 | 4.8 | 12.9 | 0.00 | 0.00 | 0.00 | 11 | 1014.2 |
| 20260508000314 | 23 | 188 | 4.8 | 12.9 | 0.00 | 0.00 | 0.00 | 10 | 1014.2 |
| 20260507235826 | 23 | 160 | 4.8 | 14.5 | 0.00 | 0.00 | 0.00 | 12 | 1014.2 |
| 20260507235329 | 23 | 159 | 3.2 | 14.5 | 0.00 | 0.00 | 0.00 | 10 | 1014.2 |
| 20260507234819 | 23 | 148 | 3.2 | 16.1 | 0.00 | 0.00 | 0.00 | 10 | 1014.4 |
| 20260507234319 | 22 | 212 | 4.8 | 16.1 | 0.00 | 0.00 | 0.00 | 12 | 1014.4 |
| 20260507233831 | 22 | 149 | 4.8 | 14.5 | 0.00 | 0.00 | 0.00 | 11 | 1014.4 |
| 20260507233329 | 23 | 86 | 3.2 | 9.7 | 0.00 | 0.00 | 0.00 | 12 | 1014.4 |
| 20260507232822 | 23 | 116 | 3.2 | 11.3 | 0.00 | 0.00 | 0.00 | 11 | 1014.5 |
| 20260507232341 | 23 | 167 | 1.6 | 11.3 | 0.00 | 0.00 | 0.00 | 12 | 1014.6 |
| 20260507231812 | 23 | 169 | 1.6 | 12.9 | 0.00 | 0.00 | 0.00 | 12 | 1014.6 |
| 20260507231309 | 23 | 114 | 4.8 | 12.9 | 0.00 | 0.00 | 0.00 | 13 | 1014.7 |
| 20260507230822 | 22 | 108 | 3.2 | 12.9 | 0.00 | 0.00 | 0.00 | 13 | 1014.7 |
| 20260507230319 | 23 | 191 | 1.6 | 12.9 | 0.00 | 0.00 | 0.00 | 13 | 1014.8 |
| 20260507225833 | 23 | 237 | 6.4 | 12.9 | 0.00 | 0.00 | 0.00 | 13 | 1014.8 |
| 20260507225331 | 23 | 211 | 4.8 | 14.5 | 0.00 | 0.00 | 0.00 | 15 | 1014.8 |
| 20260507224822 | 22 | 184 | 3.2 | 14.5 | 0.00 | 0.00 | 0.00 | 14 | 1014.9 |
| 20260507224320 | 23 | 182 | 4.8 | 11.3 | 0.00 | 0.00 | 0.00 | 15 | 1015.0 |
| 20260507223810 | 22 | 231 | 3.2 | 8.0 | 0.00 | 0.00 | 0.00 | 15 | 1015.0 |
| 20260507223330 | 22 | 248 | 1.6 | 8.0 | 0.00 | 0.00 | 0.00 | 14 | 1015.1 |
| 20260507222821 | 22 | 143 | 3.2 | 12.9 | 0.00 | 0.00 | 0.00 | 15 | 1015.2 |
| 20260507222319 | 22 | 134 | 3.2 | 16.1 | 0.00 | 0.00 | 0.00 | 19 | 1015.3 |
| 20260507221811 | 22 | 190 | 9.7 | 16.1 | 0.00 | 0.00 | 0.00 | 16 | 1015.5 |
| 20260507221309 | 22 | 251 | 6.4 | 14.5 | 0.00 | 0.00 | 0.00 | 17 | 1015.5 |
| 20260507220845 | 22 | 172 | 6.4 | 16.1 | 0.00 | 0.00 | 0.00 | 19 | 1015.5 |
| 20260507220322 | 22 | 186 | 8.0 | 16.1 | 0.00 | 0.00 | 0.00 | 17 | 1015.5 |
| 20260507215834 | 22 | 192 | 8.0 | 16.1 | 0.00 | 0.00 | 0.00 | 18 | 1015.6 |
| 20260507215310 | 22 | 250 | 9.7 | 17.7 | 0.00 | 0.00 | 0.00 | 20 | 1015.6 |
| 20260507214823 | 22 | 211 | 9.7 | 17.7 | 0.00 | 0.00 | 0.00 | 19 | 1015.7 |
| 20260507214321 | 22 | 254 | 9.7 | 17.7 | 0.00 | 0.00 | 0.00 | 19 | 1015.9 |
| 20260507213835 | 22 | 169 | 6.4 | 19.3 | 0.00 | 0.00 | 0.00 | 21 | 1015.9 |
| 20260507213311 | 22 | 211 | 11.3 | 19.3 | 0.00 | 0.00 | 0.00 | 24 | 1016.1 |
| 20260507212825 | 22 | 192 | 6.4 | 16.1 | 0.00 | 0.00 | 0.00 | 22 | 1016.2 |
| 20260507212326 | 21 | 239 | 9.7 | 17.7 | 0.00 | 0.00 | 0.00 | 22 | 1016.3 |
| 20260507211839 | 21 | 223 | 6.4 | 14.5 | 0.00 | 0.00 | 0.00 | 21 | 1016.4 |
| 20260507211338 | 21 | 223 | 3.2 | 14.5 | 0.00 | 0.00 | 0.00 | 19 | 1016.4 |
| 20260507210825 | 21 | 167 | 3.2 | 14.5 | 0.00 | 0.00 | 0.00 | 20 | 1016.4 |
| 20260507210327 | 21 | 148 | 4.8 | 14.5 | 0.00 | 0.00 | 0.00 | 20 | 1016.6 |
| 20260507205840 | 21 | 232 | 9.7 | 14.5 | 0.00 | 0.00 | 0.00 | 19 | 1016.7 |
| 20260507205317 | 21 | 200 | 4.8 | 14.5 | 0.00 | 0.00 | 0.00 | 20 | 1016.8 |
| 20260507204829 | 20 | 217 | 6.4 | 14.5 | 0.00 | 0.00 | 0.00 | 19 | 1016.8 |
| 20260507204328 | 20 | 194 | 3.2 | 14.5 | 0.00 | 0.00 | 0.00 | 19 | 1016.9 |
| 20260507203819 | 20 | 70 | 6.4 | 12.9 | 0.00 | 0.00 | 0.00 | 18 | 1017.1 |
| 20260507203316 | 20 | 107 | 3.2 | 14.5 | 0.00 | 0.00 | 0.00 | 18 | 1017.2 |
| 20260507202809 | 20 | 202 | 6.4 | 14.5 | 0.00 | 0.00 | 0.00 | 22 | 1017.3 |
| 20260507202329 | 20 | 164 | 1.6 | 16.1 | 0.00 | 0.00 | 0.00 | 19 | 1017.3 |
| 20260507201820 | 20 | 165 | 6.4 | 16.1 | 0.00 | 0.00 | 0.00 | 19 | 1017.4 |
| 20260507201317 | 20 | 163 | 4.8 | 12.9 | 0.00 | 0.00 | 0.00 | 21 | 1017.4 |
| 20260507200809 | 20 | 187 | 6.4 | 16.1 | 0.00 | 0.00 | 0.00 | 19 | 1017.5 |
| 20260507200328 | 20 | 69 | 1.6 | 16.1 | 0.00 | 0.00 | 0.00 | 18 | 1017.6 |
| 20260507195819 | 19 | 138 | 4.8 | 14.5 | 0.00 | 0.00 | 0.00 | 19 | 1017.7 |
| 20260507195318 | 19 | 194 | 6.4 | 14.5 | 0.00 | 0.00 | 0.00 | 20 | 1017.8 |
| 20260507194809 | 19 | 168 | 4.8 | 12.9 | 0.00 | 0.00 | 0.00 | 21 | 1017.9 |
| 20260507194350 | 18 | 71 | 3.2 | 16.1 | 0.00 | 0.00 | 0.00 | 21 | 1017.9 |
| 20260507193820 | 18 | 102 | 8.0 | 16.1 | 0.00 | 0.00 | 0.00 | 20 | 1018.0 |
| 20260507193318 | 18 | 123 | 4.8 | 16.1 | 0.00 | 0.00 | 0.00 | 24 | 1018.1 |
| 20260507192830 | 18 | 163 | 3.2 | 17.7 | 0.00 | 0.00 | 0.00 | 21 | 1018.1 |
| 20260507192311 | 18 | 76 | 9.7 | 17.7 | 0.00 | 0.00 | 0.00 | 21 | 1018.3 |
| 20260507191823 | 18 | 92 | 11.3 | 16.1 | 0.00 | 0.00 | 0.00 | 22 | 1018.3 |
| 20260507191320 | 18 | 61 | 9.7 | 20.9 | 0.00 | 0.00 | 0.00 | 23 | 1018.4 |
| 20260507190811 | 17 | 9 | 9.7 | 20.9 | 0.00 | 0.00 | 0.00 | 24 | 1018.5 |
| 20260507190309 | 17 | 96 | 8.0 | 24.1 | 0.00 | 0.00 | 0.00 | 23 | 1018.5 |
| 20260507185821 | 17 | 82 | 9.7 | 24.1 | 0.00 | 0.00 | 0.00 | 22 | 1018.5 |
| 20260507185319 | 17 | 71 | 9.7 | 19.3 | 0.00 | 0.00 | 0.00 | 23 | 1018.7 |
| 20260507184809 | 17 | 56 | 11.3 | 19.3 | 0.00 | 0.00 | 0.00 | 23 | 1018.7 |
| 20260507184328 | 17 | 95 | 9.7 | 20.9 | 0.00 | 0.00 | 0.00 | 25 | 1018.9 |
| 20260507183842 | 17 | 43 | 9.7 | 20.9 | 0.00 | 0.00 | 0.00 | 25 | 1018.9 |
| 20260507183318 | 16 | 32 | 8.0 | 16.1 | 0.00 | 0.00 | 0.00 | 24 | 1018.9 |
| 20260507182809 | 16 | 40 | 8.0 | 19.3 | 0.00 | 0.00 | 0.00 | 24 | 1019.1 |
| 20260507182328 | 16 | 327 | 11.3 | 19.3 | 0.00 | 0.00 | 0.00 | 25 | 1019.1 |
| 20260507181820 | 16 | 161 | 3.2 | 19.3 | 0.00 | 0.00 | 0.00 | 24 | 1019.2 |
| 20260507181318 | 16 | 36 | 8.0 | 20.9 | 0.00 | 0.00 | 0.00 | 26 | 1019.2 |
| 20260507180810 | 16 | 55 | 9.7 | 20.9 | 0.00 | 0.00 | 0.00 | 29 | 1019.4 |
| 20260507180329 | 16 | 34 | 9.7 | 19.3 | 0.00 | 0.00 | 0.00 | 27 | 1019.5 |
| 20260507175820 | 15 | 92 | 9.7 | 24.1 | 0.00 | 0.00 | 0.00 | 27 | 1019.4 |
| 20260507175340 | 15 | 32 | 9.7 | 27.4 | 0.00 | 0.00 | 0.00 | 29 | 1019.6 |
| 20260507174810 | 15 | 22 | 14.5 | 27.4 | 0.00 | 0.00 | 0.00 | 29 | 1019.8 |
| 20260507174312 | 15 | 34 | 11.3 | 20.9 | 0.00 | 0.00 | 0.00 | 29 | 1019.9 |
| 20260507173824 | 15 | 291 | 9.7 | 22.5 | 0.00 | 0.00 | 0.00 | 30 | 1019.9 |
| 20260507173322 | 15 | 34 | 12.9 | 22.5 | 0.00 | 0.00 | 0.00 | 29 | 1020.1 |
| 20260507172815 | 14 | 97 | 8.0 | 24.1 | 0.00 | 0.00 | 0.00 | 32 | 1020.2 |
| 20260507172311 | 14 | 43 | 3.2 | 24.1 | 0.00 | 0.00 | 0.00 | 33 | 1020.3 |
| 20260507171824 | 14 | 26 | 12.9 | 24.1 | 0.00 | 0.00 | 0.00 | 31 | 1020.4 |
| 20260507171322 | 14 | 15 | 6.4 | 19.3 | 0.00 | 0.00 | 0.00 | 31 | 1020.5 |
| 20260507170812 | 14 | 326 | 8.0 | 24.1 | 0.00 | 0.00 | 0.00 | 32 | 1020.5 |
| 20260507170311 | 13 | 360 | 12.9 | 24.1 | 0.00 | 0.00 | 0.00 | 31 | 1020.6 |
| 20260507165825 | 13 | 40 | 12.9 | 22.5 | 0.00 | 0.00 | 0.00 | 32 | 1020.5 |
| 20260507165322 | 13 | 333 | 11.3 | 22.5 | 0.00 | 0.00 | 0.00 | 29 | 1020.6 |
| 20260507164812 | 13 | 18 | 12.9 | 20.9 | 0.00 | 0.00 | 0.00 | 29 | 1020.7 |
| 20260507164333 | 13 | 26 | 11.3 | 24.1 | 0.00 | 0.00 | 0.00 | 32 | 1020.8 |
| 20260507163825 | 13 | 355 | 9.7 | 24.1 | 0.00 | 0.00 | 0.00 | 30 | 1020.8 |
| 20260507163322 | 13 | 9 | 11.3 | 25.7 | 0.00 | 0.00 | 0.00 | 30 | 1020.8 |
| 20260507162835 | 12 | 34 | 11.3 | 25.7 | 0.00 | 0.00 | 0.00 | 33 | 1020.9 |
| 20260507162333 | 12 | 68 | 11.3 | 25.7 | 0.00 | 0.00 | 0.00 | 33 | 1021.1 |
| 20260507161826 | 12 | 47 | 12.9 | 27.4 | 0.00 | 0.00 | 0.00 | 36 | 1021.2 |
| 20260507161323 | 11 | 37 | 16.1 | 27.4 | 0.00 | 0.00 | 0.00 | 35 | 1021.3 |
| 20260507160816 | 11 | 15 | 9.7 | 24.1 | 0.00 | 0.00 | 0.00 | 38 | 1021.2 |
| 20260507160312 | 11 | 11 | 12.9 | 24.1 | 0.00 | 0.00 | 0.00 | 41 | 1021.3 |
| 20260507155825 | 10 | 355 | 12.9 | 19.3 | 0.00 | 0.00 | 0.00 | 42 | 1021.4 |
| 20260507155327 | 10 | 65 | 9.7 | 20.9 | 0.00 | 0.00 | 0.00 | 45 | 1021.4 |
| 20260507154819 | 9 | 96 | 9.7 | 22.5 | 0.00 | 0.00 | 0.00 | 46 | 1021.4 |
| 20260507154317 | 9 | 67 | 11.3 | 22.5 | 0.00 | 0.00 | 0.00 | 49 | 1021.6 |
| 20260507153830 | 8 | 40 | 8.0 | 19.3 | 0.00 | 0.00 | 0.00 | 50 | 1021.6 |
| 20260507153327 | 8 | 32 | 8.0 | 19.3 | 0.00 | 0.00 | 0.00 | 53 | 1021.6 |
| 20260507152818 | 8 | 19 | 9.7 | 20.9 | 0.00 | 0.00 | 0.00 | 54 | 1021.6 |
| 20260507152336 | 7 | 40 | 11.3 | 20.9 | 0.00 | 0.00 | 0.00 | 55 | 1021.6 |
| 20260507151828 | 7 | 55 | 8.0 | 17.7 | 0.00 | 0.00 | 0.00 | 57 | 1021.6 |
| 20260507151326 | 7 | 71 | 9.7 | 17.7 | 0.00 | 0.00 | 0.00 | 58 | 1021.6 |
| 20260507150817 | 6 | 21 | 8.0 | 17.7 | 0.00 | 0.00 | 0.00 | 59 | 1021.7 |
| 20260507150316 | 6 | 66 | 8.0 | 17.7 | 0.00 | 0.00 | 0.00 | 61 | 1021.7 |
| 20260507145828 | 6 | 24 | 8.0 | 16.1 | 0.00 | 0.00 | 0.00 | 61 | 1021.8 |
| 20260507145325 | 6 | 22 | 4.8 | 9.7 | 0.00 | 0.00 | 0.00 | 63 | 1021.8 |
| 20260507144816 | 5 | 74 | 4.8 | 9.7 | 0.00 | 0.00 | 0.00 | 64 | 1021.9 |
| 20260507144337 | 5 | 24 | 4.8 | 11.3 | 0.00 | 0.00 | 0.00 | 65 | 1021.8 |
| 20260507143828 | 5 | 39 | 6.4 | 11.3 | 0.00 | 0.00 | 0.00 | 65 | 1021.9 |
| 20260507143327 | 5 | 28 | 4.8 | 8.0 | 0.00 | 0.00 | 0.00 | 65 | 1022.0 |
| 20260507142819 | 5 | 75 | 3.2 | 9.7 | 0.00 | 0.00 | 0.00 | 66 | 1022.0 |
| 20260507142317 | 5 | 96 | 4.8 | 9.7 | 0.00 | 0.00 | 0.00 | 65 | 1022.0 |
| 20260507141829 | 5 | 82 | 4.8 | 11.3 | 0.00 | 0.00 | 0.00 | 65 | 1022.2 |
| 20260507141327 | 5 | 27 | 4.8 | 14.5 | 0.00 | 0.00 | 0.00 | 66 | 1022.2 |
| 20260507140820 | 5 | 66 | 8.0 | 14.5 | 0.00 | 0.00 | 0.00 | 66 | 1022.2 |
| 20260507140317 | 5 | 11 | 3.2 | 12.9 | 0.00 | 0.00 | 0.00 | 67 | 1022.2 |
| 20260507135810 | 5 | 22 | 3.2 | 12.9 | 0.00 | 0.00 | 0.00 | 68 | 1022.3 |
| 20260507135312 | 4 | 10 | 6.4 | 12.9 | 0.00 | 0.00 | 0.00 | 68 | 1022.4 |
| 20260507134841 | 4 | 17 | 6.4 | 9.7 | 0.00 | 0.00 | 0.00 | 70 | 1022.3 |
| 20260507134322 | 3 | 10 | 4.8 | 9.7 | 0.00 | 0.00 | 0.00 | 72 | 1022.4 |
| 20260507133813 | 3 | 9 | 6.4 | 11.3 | 0.00 | 0.00 | 0.00 | 73 | 1022.3 |
| 20260507133332 | 3 | 355 | 4.8 | 9.7 | 0.00 | 0.00 | 0.00 | 74 | 1022.4 |
| 20260507132824 | 2 | 61 | 4.8 | 9.7 | 0.00 | 0.00 | 0.00 | 76 | 1022.4 |
| 20260507132321 | 2 | 15 | 4.8 | 8.0 | 0.00 | 0.00 | 0.00 | 78 | 1022.4 |
| 20260507131813 | 1 | 65 | 3.2 | 6.4 | 0.00 | 0.00 | 0.00 | 80 | 1022.3 |
| 20260507131312 | 1 | 360 | 0.0 | 4.8 | 0.00 | 0.00 | 0.00 | 82 | 1022.4 |
| 20260507130824 | 0 | 360 | 1.6 | 4.8 | 0.00 | 0.00 | 0.00 | 83 | 1022.4 |
| 20260507130322 | 0 | 333 | 1.6 | 1.6 | 0.00 | 0.00 | 0.00 | 84 | 1022.3 |
| 20260507125812 | 0 | 333 | 0.0 | 1.6 | 0.00 | 0.00 | 0.00 | 84 | 1022.3 |
| 20260507125310 | 0 | 333 | 0.0 | 3.2 | 0.00 | 0.00 | 0.00 | 84 | 1022.4 |
| 20260507124844 | 0 | 333 | 1.6 | 3.2 | 0.00 | 0.00 | 0.00 | 84 | 1022.4 |
| 20260507124321 | -1 | 333 | 0.0 | 3.2 | 0.00 | 0.00 | 0.00 | 84 | 1022.3 |
| 20260507123811 | -1 | 305 | 0.0 | 3.2 | 0.00 | 0.00 | 0.00 | 84 | 1022.2 |
| 20260507123310 | -1 | 305 | 1.6 | 3.2 | 0.00 | 0.00 | 0.00 | 84 | 1022.2 |
| 20260507122822 | -1 | 305 | 0.0 | 3.2 | 0.00 | 0.00 | 0.00 | 83 | 1022.2 |
| 20260507122319 | -1 | 305 | 0.0 | 3.2 | 0.00 | 0.00 | 0.00 | 82 | 1022.2 |
| 20260507121832 | -1 | 305 | 0.0 | 1.6 | 0.00 | 0.00 | 0.00 | 82 | 1022.0 |
| 20260507121309 | -1 | 305 | 0.0 | 3.2 | 0.00 | 0.00 | 0.00 | 82 | 1022.1 |
| 20260507120821 | -1 | 305 | 1.6 | 3.2 | 0.00 | 0.00 | 0.00 | 82 | 1022.0 |
| 20260507120319 | -1 | 305 | 1.6 | 3.2 | 0.00 | 0.00 | 0.00 | 81 | 1022.1 |
| 20260507115810 | -1 | 305 | 1.6 | 3.2 | 0.00 | 0.00 | 0.00 | 81 | 1022.1 |
| 20260507115330 | -1 | 305 | 0.0 | 1.6 | 0.00 | 0.00 | 0.00 | 81 | 1022.0 |
| 20260507114821 | -1 | 305 | 0.0 | 1.6 | 0.00 | 0.00 | 0.00 | 81 | 1022.0 |
| 20260507114323 | -1 | 305 | 1.6 | 1.6 | 0.00 | 0.00 | 0.00 | 81 | 1021.9 |
| 20260507113814 | -1 | 305 | 0.0 | 1.6 | 0.00 | 0.00 | 0.00 | 81 | 1021.9 |
| 20260507113311 | -1 | 305 | 0.0 | 1.6 | 0.00 | 0.00 | 0.00 | 81 | 1022.0 |
| 20260507112824 | -1 | 305 | 1.6 | 1.6 | 0.00 | 0.00 | 0.00 | 81 | 1022.1 |
| 20260507112323 | -1 | 305 | 0.0 | 3.2 | 0.00 | 0.00 | 0.00 | 81 | 1022.0 |
| 20260507111814 | 0 | 305 | 1.6 | 3.2 | 0.00 | 0.00 | 0.00 | 81 | 1022.0 |
| 20260507111312 | 0 | 305 | 1.6 | 3.2 | 0.00 | 0.00 | 0.00 | 81 | 1021.8 |
| 20260507110825 | 0 | 305 | 0.0 | 4.8 | 0.00 | 0.00 | 0.00 | 81 | 1021.8 |
| 20260507110344 | 0 | 330 | 1.6 | 4.8 | 0.00 | 0.00 | 0.00 | 81 | 1021.8 |
| 20260507105814 | 0 | 50 | 0.0 | 3.2 | 0.00 | 0.00 | 0.00 | 81 | 1021.8 |
| 20260507105312 | 0 | 50 | 0.0 | 3.2 | 0.00 | 0.00 | 0.00 | 81 | 1021.8 |
| 20260507104825 | 0 | 50 | 1.6 | 3.2 | 0.00 | 0.00 | 0.00 | 81 | 1021.7 |
| 20260507104322 | 0 | 50 | 1.6 | 1.6 | 0.00 | 0.00 | 0.00 | 80 | 1021.7 |
| 20260507103813 | 0 | 50 | 0.0 | 3.2 | 0.00 | 0.00 | 0.00 | 81 | 1021.7 |
| 20260507103311 | 0 | 50 | 1.6 | 3.2 | 0.00 | 0.00 | 0.00 | 80 | 1021.7 |
| 20260507102824 | 0 | 50 | 1.6 | 3.2 | 0.00 | 0.00 | 0.00 | 80 | 1021.8 |
| 20260507102343 | 0 | 50 | 1.6 | 3.2 | 0.00 | 0.00 | 0.00 | 80 | 1021.8 |
| 20260507101814 | 0 | 50 | 0.0 | 0.0 | 0.00 | 0.00 | 0.00 | 80 | 1021.8 |
| 20260507101312 | 0 | 50 | 0.0 | 1.6 | 0.00 | 0.00 | 0.00 | 80 | 1021.8 |
| 20260507100824 | 0 | 50 | 0.0 | 1.6 | 0.00 | 0.00 | 0.00 | 80 | 1021.8 |
| 20260507100322 | 0 | 50 | 0.0 | 1.6 | 0.00 | 0.00 | 0.00 | 80 | 1021.8 |
| 20260507095812 | 0 | 50 | 0.0 | 1.6 | 0.00 | 0.00 | 0.00 | 80 | 1021.8 |
| 20260507095315 | 0 | 50 | 0.0 | 4.8 | 0.00 | 0.00 | 0.00 | 79 | 1021.8 |
| 20260507094824 | 0 | 50 | 3.2 | 4.8 | 0.00 | 0.00 | 0.00 | 79 | 1021.8 |
| 20260507094322 | 0 | 76 | 1.6 | 4.8 | 0.00 | 0.00 | 0.00 | 78 | 1021.7 |
| 20260507093814 | 0 | 76 | 3.2 | 6.4 | 0.00 | 0.00 | 0.00 | 78 | 1021.7 |
| 20260507093311 | 0 | 76 | 3.2 | 6.4 | 0.00 | 0.00 | 0.00 | 77 | 1021.6 |
| 20260507092824 | 1 | 26 | 1.6 | 3.2 | 0.00 | 0.00 | 0.00 | 76 | 1021.7 |
| 20260507092321 | 1 | 351 | 0.0 | 1.6 | 0.00 | 0.00 | 0.00 | 75 | 1021.6 |
| 20260507091812 | 1 | 351 | 1.6 | 1.6 | 0.00 | 0.00 | 0.00 | 75 | 1021.6 |
| 20260507091332 | 1 | 351 | 0.0 | 3.2 | 0.00 | 0.00 | 0.00 | 74 | 1021.5 |
| 20260507090824 | 1 | 351 | 1.6 | 4.8 | 0.00 | 0.00 | 0.00 | 74 | 1021.4 |
| 20260507090322 | 1 | 350 | 1.6 | 4.8 | 0.00 | 0.00 | 0.00 | 75 | 1021.3 |
| 20260507085812 | 1 | 345 | 1.6 | 4.8 | 0.00 | 0.00 | 0.00 | 74 | 1021.3 |
| 20260507085311 | 1 | 344 | 1.6 | 4.8 | 0.00 | 0.00 | 0.00 | 74 | 1021.3 |
| 20260507084824 | 1 | 330 | 1.6 | 3.2 | 0.00 | 0.00 | 0.00 | 74 | 1021.3 |
| 20260507084322 | 1 | 326 | 1.6 | 3.2 | 0.00 | 0.00 | 0.00 | 73 | 1021.3 |
| 20260507083835 | 1 | 326 | 0.0 | 3.2 | 0.00 | 0.00 | 0.00 | 72 | 1021.4 |
| 20260507083333 | 2 | 326 | 0.0 | 3.2 | 0.00 | 0.00 | 0.00 | 72 | 1021.4 |
| 20260507082824 | 2 | 326 | 1.6 | 1.6 | 0.00 | 0.00 | 0.00 | 71 | 1021.4 |
| 20260507082323 | 2 | 326 | 0.0 | 1.6 | 0.00 | 0.00 | 0.00 | 70 | 1021.3 |
| 20260507081815 | 2 | 326 | 0.0 | 3.2 | 0.00 | 0.00 | 0.00 | 70 | 1021.2 |
| 20260507081313 | 2 | 313 | 0.0 | 4.8 | 0.00 | 0.00 | 0.00 | 71 | 1021.2 |
| 20260507080825 | 2 | 307 | 3.2 | 4.8 | 0.00 | 0.00 | 0.00 | 71 | 1021.2 |
| 20260507080327 | 2 | 321 | 3.2 | 4.8 | 0.00 | 0.00 | 0.00 | 72 | 1021.2 |
| 20260507075816 | 2 | 313 | 3.2 | 4.8 | 0.00 | 0.00 | 0.00 | 72 | 1021.2 |
| 20260507075314 | 2 | 348 | 1.6 | 3.2 | 0.00 | 0.00 | 0.00 | 72 | 1021.2 |
| 20260507074828 | 2 | 348 | 0.0 | 3.2 | 0.00 | 0.00 | 0.00 | 73 | 1021.2 |
| 20260507074325 | 2 | 348 | 0.0 | 8.0 | 0.00 | 0.00 | 0.00 | 73 | 1021.2 |
| 20260507073817 | 2 | 348 | 3.2 | 8.0 | 0.00 | 0.00 | 0.00 | 73 | 1021.2 |
| 20260507073315 | 2 | 348 | 3.2 | 6.4 | 0.00 | 0.00 | 0.00 | 72 | 1021.2 |
| 20260507072829 | 2 | 315 | 1.6 | 3.2 | 0.00 | 0.00 | 0.00 | 72 | 1021.2 |
| 20260507072326 | 2 | 315 | 0.0 | 3.2 | 0.00 | 0.00 | 0.00 | 72 | 1021.2 |
| 20260507071817 | 2 | 315 | 0.0 | 3.2 | 0.00 | 0.00 | 0.00 | 72 | 1021.1 |
| 20260507071315 | 2 | 315 | 0.0 | 3.2 | 0.00 | 0.00 | 0.00 | 72 | 1021.1 |
| 20260507070850 | 2 | 355 | 1.6 | 3.2 | 0.00 | 0.00 | 0.00 | 72 | 1021.0 |
| 20260507070348 | 2 | 355 | 0.0 | 1.6 | 0.00 | 0.00 | 0.00 | 71 | 1021.0 |
| 20260507065818 | 2 | 355 | 0.0 | 1.6 | 0.00 | 0.00 | 0.00 | 71 | 1021.0 |
| 20260507065316 | 2 | 355 | 0.0 | 3.2 | 0.00 | 0.00 | 0.00 | 70 | 1020.9 |
| 20260507064810 | 2 | 355 | 0.0 | 3.2 | 0.00 | 0.00 | 0.00 | 70 | 1020.8 |
| 20260507064329 | 2 | 355 | 0.0 | 1.6 | 0.00 | 0.00 | 0.00 | 71 | 1020.9 |
| 20260507063819 | 3 | 355 | 0.0 | 1.6 | 0.00 | 0.00 | 0.00 | 70 | 1020.8 |
| 20260507063318 | 3 | 355 | 0.0 | 0.0 | 0.00 | 0.00 | 0.00 | 70 | 1020.8 |
| 20260507062831 | 3 | 355 | 0.0 | 6.4 | 0.00 | 0.00 | 0.00 | 70 | 1020.8 |
| 20260507062310 | 3 | 355 | 1.6 | 6.4 | 0.00 | 0.00 | 0.00 | 69 | 1020.6 |
| 20260507061823 | 3 | 355 | 1.6 | 6.4 | 0.00 | 0.00 | 0.00 | 69 | 1020.6 |
| 20260507061323 | 3 | 290 | 0.0 | 0.0 | 0.00 | 0.00 | 0.00 | 69 | 1020.6 |
| 20260507060814 | 3 | 290 | 0.0 | 0.0 | 0.00 | 0.00 | 0.00 | 68 | 1020.5 |
| 20260507060311 | 3 | 290 | 0.0 | 0.0 | 0.00 | 0.00 | 0.00 | 68 | 1020.5 |
| 20260507055846 | 3 | 290 | 0.0 | 0.0 | 0.00 | 0.00 | 0.00 | 67 | 1020.4 |
| 20260507055322 | 3 | 290 | 0.0 | 0.0 | 0.00 | 0.00 | 0.00 | 67 | 1020.3 |
| 20260507054813 | 4 | 290 | 0.0 | 0.0 | 0.00 | 0.00 | 0.00 | 67 | 1020.2 |
| 20260507054333 | 4 | 290 | 0.0 | 3.2 | 0.00 | 0.00 | 0.00 | 66 | 1020.2 |
| 20260507053847 | 4 | 290 | 0.0 | 3.2 | 0.00 | 0.00 | 0.00 | 66 | 1020.1 |
| 20260507053324 | 4 | 290 | 0.0 | 0.0 | 0.00 | 0.00 | 0.00 | 65 | 1020.1 |
| 20260507052837 | 5 | 290 | 0.0 | 0.0 | 0.00 | 0.00 | 0.00 | 65 | 1020.1 |
| 20260507052313 | 5 | 290 | 0.0 | 6.4 | 0.00 | 0.00 | 0.00 | 64 | 1020.0 |
| 20260507051827 | 5 | 290 | 0.0 | 6.4 | 0.00 | 0.00 | 0.00 | 64 | 1020.0 |
| 20260507051324 | 5 | 294 | 3.2 | 6.4 | 0.00 | 0.00 | 0.00 | 64 | 1019.9 |
| 20260507050816 | 5 | 304 | 3.2 | 6.4 | 0.00 | 0.00 | 0.00 | 64 | 1019.9 |
| 20260507050313 | 5 | 314 | 1.6 | 4.8 | 0.00 | 0.00 | 0.00 | 63 | 1020.0 |
| 20260507045828 | 5 | 316 | 1.6 | 3.2 | 0.00 | 0.03 | 0.00 | 62 | 1019.8 |
| 20260507045325 | 5 | 321 | 1.6 | 3.2 | 0.00 | 0.03 | 0.00 | 62 | 1019.8 |
| 20260507044818 | 6 | 329 | 0.0 | 6.4 | 0.00 | 0.03 | 0.00 | 61 | 1019.8 |
| 20260507044315 | 6 | 322 | 3.2 | 6.4 | 0.00 | 0.03 | 0.00 | 61 | 1019.6 |
| 20260507043828 | 6 | 314 | 4.8 | 8.0 | 0.00 | 0.03 | 0.00 | 61 | 1019.5 |
| 20260507043325 | 6 | 287 | 6.4 | 8.0 | 0.00 | 0.03 | 0.00 | 61 | 1019.5 |
| 20260507042817 | 6 | 306 | 4.8 | 8.0 | 0.00 | 0.03 | 0.00 | 60 | 1019.6 |
| 20260507042336 | 6 | 296 | 4.8 | 8.0 | 0.00 | 0.03 | 0.00 | 60 | 1019.5 |
| 20260507041829 | 6 | 311 | 3.2 | 8.0 | 0.00 | 0.03 | 0.00 | 60 | 1019.4 |
| 20260507041323 | 6 | 303 | 4.8 | 8.0 | 0.00 | 0.03 | 0.00 | 59 | 1019.3 |
| 20260507040814 | 6 | 302 | 4.8 | 8.0 | 0.00 | 0.03 | 0.00 | 59 | 1019.2 |
| 20260507040316 | 7 | 302 | 4.8 | 8.0 | 0.00 | 0.03 | 0.00 | 58 | 1019.2 |
| 20260507035828 | 7 | 324 | 3.2 | 6.4 | 0.00 | 0.03 | 0.00 | 57 | 1019.1 |
| 20260507035348 | 7 | 309 | 3.2 | 6.4 | 0.00 | 0.03 | 0.00 | 57 | 1019.1 |
| 20260507034818 | 7 | 315 | 1.6 | 6.4 | 0.00 | 0.03 | 0.00 | 56 | 1019.1 |
| 20260507034316 | 7 | 338 | 1.6 | 6.4 | 0.00 | 0.03 | 0.00 | 55 | 1018.9 |
| 20260507033829 | 7 | 347 | 1.6 | 9.7 | 0.00 | 0.03 | 0.00 | 55 | 1018.9 |
| 20260507033327 | 8 | 302 | 4.8 | 9.7 | 0.00 | 0.03 | 0.00 | 55 | 1018.9 |
| 20260507032819 | 8 | 325 | 3.2 | 9.7 | 0.00 | 0.03 | 0.00 | 54 | 1018.7 |
| 20260507032318 | 8 | 288 | 6.4 | 12.9 | 0.00 | 0.03 | 0.00 | 54 | 1018.5 |
| 20260507031809 | 8 | 330 | 4.8 | 12.9 | 0.00 | 0.03 | 0.00 | 53 | 1018.4 |
| 20260507031328 | 8 | 336 | 4.8 | 12.9 | 0.00 | 0.03 | 0.00 | 52 | 1018.4 |
| 20260507030820 | 8 | 17 | 6.4 | 12.9 | 0.00 | 0.03 | 0.00 | 51 | 1018.2 |
| 20260507030319 | 9 | 338 | 4.8 | 16.1 | 0.00 | 0.03 | 0.00 | 49 | 1018.1 |
| 20260507025810 | 9 | 355 | 6.4 | 16.1 | 0.00 | 0.03 | 0.00 | 47 | 1018.1 |
| 20260507025328 | 9 | 348 | 8.0 | 14.5 | 0.00 | 0.03 | 0.00 | 47 | 1017.9 |
| 20260507024819 | 9 | 355 | 1.6 | 6.4 | 0.00 | 0.03 | 0.00 | 44 | 1017.7 |
| 20260507024316 | 9 | 326 | 1.6 | 4.8 | 0.00 | 0.03 | 0.00 | 44 | 1017.5 |